• Join FlightAware (Why Join?)
  • Login
  • US Flag 
07:27AM EST


 

Airport Tracker/Info


-or-


 

Live Flight TrackerFlight Track Log ✈ FFT532 ✈ 14-Nov-2013 ✈ KDEN - KMDW

Flight Track Log - Related Links

Times and Time Zones

All times are in EST time to prevent confusion due to time zone crossing. See the FFT532 flight status page for this flight to view local times or setup timezone preferences in your user account.

Time Position Orientation Groundspeed Altitude Reporting Facility
EST Latitude Longitude Course Direction KTS MPH feet Rate Location/Type
01:19PM 39.8770 -104.6200 North 177 204 5,900  Level FlightAware
01:19PM 39.8760 -104.5890 92° East 194 223 7,000 1,900 Climbing FlightAware
01:20PM 39.8760 -104.5470 90° East 230 265 7,800 1,412 Climbing FlightAware
01:20PM 39.8760 -104.4930 90° East 278 320 8,600 1,865 Climbing FlightAware
01:21PM 39.8760 -104.4240 90° East 308 354 10,100 2,032 Climbing FlightAware
01:22PM 39.8770 -104.3760 88° East 337 388 10,700 2,500 Climbing FlightAware
01:22PM 39.8780 -104.3020 89° East 341 392 12,600 2,795 Climbing FlightAware
01:23PM 39.8780 -104.2340 90° East 352 405 14,100 2,385 Climbing FlightAware
01:23PM 39.8800 -104.1370 88° East 368 423 15,700 2,366 Climbing FlightAware
01:24PM 39.8800 -104.0710 90° East 373 429 16,900 2,323 Climbing FlightAware
01:24PM 39.8810 -103.9960 89° East 384 442 18,100 2,438 Climbing FlightAware
01:25PM 39.8820 -103.9230 89° East 388 447 19,500 2,348 Climbing FlightAware
01:26PM 39.8830 -103.7810 89° East 398 458 21,700 2,133 Climbing FlightAware
01:26PM 39.8860 -103.7110 87° East 403 464 22,700 2,000 Climbing FlightAware
01:27PM 39.8950 -103.6360 81° East 409 471 23,700 2,000 Climbing FlightAware
01:28PM 39.9120 -103.4870 81° East 416 479 25,700 1,879 Climbing FlightAware
01:29PM 39.9230 -103.3910 81° East 421 484 26,800 1,667 Climbing FlightAware
01:29PM 39.9330 -103.3080 81° East 426 490 27,700 1,565 Climbing FlightAware
01:30PM 39.9430 -103.2160 82° East 432 497 28,600 1,537 Climbing FlightAware
01:31PM 39.9560 -103.0960 82° East 436 502 29,800 1,404 Climbing FlightAware
01:31PM 39.9700 -102.9720 82° East 444 511 30,800 1,432 Climbing FlightAware
01:32PM 39.9780 -102.8640 84° East 443 510 31,900 1,291 Climbing FlightAware
01:33PM 39.9840 -102.7610 86° East 453 521 32,500 1,143 Climbing FlightAware
01:33PM 39.9910 -102.6380 86° East 453 521 33,500 1,103 Climbing FlightAware
01:34PM 39.9980 -102.5220 85° East 464 534 34,100 929 Climbing FlightAware
01:35PM 40.0050 -102.4090 85° East 466 536 34,800 947 Climbing FlightAware
01:36PM 40.0160 -102.2010 86° East 475 547 35,900 667 Climbing FlightAware
01:37PM 40.0220 -102.0980 86° East 484 557 36,000 88 Climbing FlightAware
01:37PM 40.0270 -102.0090 86° East 485 558 36,000  Level FlightAware
01:38PM 40.0320 -101.9140 86° East 485 558 36,000 162 Level FlightAware
01:38PM 40.0390 -101.7980 85° East 483 556 36,200 655 Climbing FlightAware
01:39PM 40.0410 -101.7430 87° East 483 556 36,600 676 Climbing FlightAware
01:40PM 40.0490 -101.6000 86° East 488 562 37,000 296 Climbing FlightAware
01:40PM 40.0540 -101.5130 86° East 488 562 37,000  Level FlightAware
01:41PM 40.0590 -101.4110 86° East 484 557 37,000  Level FlightAware
01:41PM 40.0650 -101.2830 86° East 484 557 37,000  Level FlightAware
01:42PM 40.0690 -101.2020 86° East 479 551 37,000  Level FlightAware
01:43PM 40.0750 -101.0550 87° East 480 552 37,000  Level FlightAware
01:44PM 40.0830 -100.8710 87° East 480 552 37,000  Level FlightAware
01:44PM 40.0870 -100.7830 87° East 480 552 37,000  Level FlightAware
01:45PM 40.0900 -100.6940 87° East 480 552 37,000  Level FlightAware
01:46PM 40.0940 -100.6050 87° East 480 552 37,000  Level FlightAware
01:46PM 40.0980 -100.5160 87° East 480 552 37,000  Level FlightAware
01:47PM 40.1000 -100.4570 87° East 480 552 37,000  Level FlightAware
01:47PM 40.1040 -100.3660 87° East 480 552 37,000  Level FlightAware
01:48PM 40.1070 -100.2800 87° East 480 552 37,000  Level FlightAware
01:48PM 40.1110 -100.1910 87° East 480 552 37,000  Level FlightAware
01:50PM 40.1250 -99.8572 87° East 484 557 37,000  Level Denver Center
01:51PM 40.1317 -99.6817 87° East 485 558 37,000  Level Denver Center
01:56PM 40.1610 -98.7260 87° East 492 566 37,000  Level FlightAware
01:56PM 40.1630 -98.6360 88° East 492 566 37,000  Level FlightAware
01:57PM 40.1660 -98.5180 88° East 488 562 37,000  Level FlightAware
01:58PM 40.1690 -98.4170 88° East 487 560 37,000  Level FlightAware
01:58PM 40.1690 -98.4140 90° East 487 560 37,000  Level FlightAware
01:59PM 40.1750 -98.1610 88° East 480 552 37,000  Level FlightAware
02:00PM 40.1770 -98.0310 89° East 479 551 37,000  Level FlightAware
02:01PM 40.1810 -97.8630 88° East 478 550 37,000  Level FlightAware
02:02PM 40.1830 -97.7340 89° East 479 551 37,000  Level FlightAware
02:02PM 40.1860 -97.5790 88° East 480 552 37,000  Level FlightAware
02:03PM 40.1870 -97.4680 89° East 482 555 37,000  Level FlightAware
02:04PM 40.1890 -97.3680 88° East 482 555 37,000  Level FlightAware
02:04PM 40.1900 -97.2660 89° East 483 556 37,000  Level FlightAware
02:05PM 40.1920 -97.1730 88° East 484 557 37,000  Level FlightAware
02:06PM 40.1940 -96.9960 89° East 485 558 37,000  Level FlightAware
02:06PM 40.1950 -96.8760 89° East 485 558 37,000  Level FlightAware
02:08PM 40.1970 -96.6770 89° East 486 559 37,000  Level FlightAware
02:08PM 40.1980 -96.5640 89° East 487 560 37,000  Level FlightAware
02:09PM 40.1990 -96.4970 89° East 488 562 37,000  Level FlightAware
02:10PM 40.2000 -96.2910 90° East 486 559 37,000  Level FlightAware
02:10PM 40.2040 -96.2100 86° East 489 563 37,000  Level FlightAware
02:11PM 40.2170 -96.0890 82° East 489 563 37,000  Level FlightAware
02:12PM 40.2550 -95.9140 74° East 489 563 37,000  Level FlightAware
02:13PM 40.2730 -95.8150 77° East 487 560 37,000  Level FlightAware
02:13PM 40.2910 -95.7170 76° East 487 560 37,000  Level FlightAware
02:14PM 40.3120 -95.6010 77° East 487 560 37,000  Level FlightAware
02:15PM 40.3430 -95.4340 76° East 488 562 37,000  Level FlightAware
02:15PM 40.3590 -95.3420 77° East 490 564 37,000  Level FlightAware
02:16PM 40.3790 -95.2320 77° East 492 566 37,000  Level FlightAware
02:16PM 40.3920 -95.1580 77° East 494 568 37,000  Level FlightAware
02:17PM 40.4130 -95.0410 77° East 495 570 37,000  Level FlightAware
02:17PM 40.4270 -94.9580 77° East 497 572 37,000  Level FlightAware
02:18PM 40.4490 -94.8320 77° East 497 572 37,000  Level FlightAware
02:19PM 40.4660 -94.7370 77° East 497 572 37,000  Level FlightAware
02:19PM 40.4860 -94.6220 77° East 498 573 37,000  Level FlightAware
02:20PM 40.5110 -94.4770 77° East 496 571 37,000  Level FlightAware
02:21PM 40.5360 -94.3280 78° East 492 566 37,000  Level FlightAware
02:22PM 40.5510 -94.2370 78° East 491 565 37,000  Level FlightAware
02:23PM 40.5810 -94.0640 77° East 490 564 37,000  Level FlightAware
02:23PM 40.6010 -93.9420 78° East 488 562 37,000  Level FlightAware
02:24PM 40.6170 -93.8380 79° East 488 562 37,000  Level FlightAware
02:24PM 40.6310 -93.7370 80° East 486 559 37,000  Level FlightAware
02:25PM 40.6470 -93.6250 79° East 485 558 37,000  Level FlightAware
02:26PM 40.6690 -93.4770 79° East 483 556 37,000  Level FlightAware
02:27PM 40.6850 -93.3640 79° East 481 554 37,000  Level FlightAware
02:28PM 40.7090 -93.1950 79° East 478 550 37,000 -59 Level FlightAware
02:28PM 40.7260 -93.0720 80° East 481 554 36,900  Descending FlightAware
02:29PM 40.7500 -92.9050 79° East 486 559 37,000 70 Climbing FlightAware
02:30PM 40.7600 -92.8340 79° East 488 562 37,000  Level FlightAware
02:31PM 40.7810 -92.6790 80° East 491 565 37,000  Level FlightAware
02:31PM 40.7920 -92.5960 80° East 492 566 37,000 -295 Level FlightAware
02:32PM 40.8060 -92.4980 79° East 490 564 36,700 -656 Descending FlightAware
02:32PM 40.8180 -92.4050 80° East 490 564 36,300 -955 Descending FlightAware
02:33PM 40.8400 -92.2400 80° East 484 557 35,300 -1,034 Descending FlightAware
02:34PM 40.8510 -92.1540 80° East 482 555 34,800 -935 Descending FlightAware
02:34PM 40.8690 -92.0210 80° East 475 547 34,100 -975 Descending FlightAware
02:35PM 40.8810 -91.9250 81° East 469 540 33,500 -1,014 Descending FlightAware
02:35PM 40.8950 -91.8200 80° East 462 532 32,900 -973 Descending FlightAware
02:36PM 40.9080 -91.7180 80° East 457 526 32,300 -1,026 Descending FlightAware
02:37PM 40.9220 -91.6110 80° East 455 524 31,600 -1,026 Descending FlightAware
02:37PM 40.9340 -91.5100 81° East 453 521 31,000 -522 Descending FlightAware
02:38PM 40.9460 -91.4210 80° East 453 521 31,000  Level FlightAware
02:39PM 40.9600 -91.3060 81° East 451 519 31,000 -77 Level FlightAware
02:39PM 40.9720 -91.2100 81° East 452 520 30,900 -794 Descending FlightAware
02:40PM 40.9830 -91.1220 81° East 443 510 30,100 -2,043 Descending FlightAware
02:41PM 41.0030 -90.9580 81° East 449 517 27,700 -2,357 Descending FlightAware
02:41PM 41.0100 -90.8950 82° East 448 516 26,800 -2,197 Descending FlightAware
02:42PM 41.0250 -90.7680 81° East 443 510 25,100 -1,821 Descending FlightAware
02:43PM 41.0460 -90.5980 81° East 426 490 23,400 -1,328 Descending FlightAware
02:44PM 41.0630 -90.4500 81° East 417 480 22,400 -1,037 Descending FlightAware
02:44PM 41.0700 -90.3920 81° East 414 476 22,000 -964 Descending FlightAware
02:45PM 41.0790 -90.3100 82° East 412 474 21,500 -985 Descending FlightAware
02:45PM 41.0890 -90.2240 81° East 411 473 20,900 -1,032 Descending FlightAware
02:46PM 41.1060 -90.0780 81° East 408 470 19,900 -1,011 Descending FlightAware
02:47PM 41.1140 -90.0040 82° East 407 468 19,400 -968 Descending FlightAware
02:48PM 41.1230 -89.9250 81° East 406 467 18,900 -1,462 Descending FlightAware
02:48PM 41.1360 -89.8110 81° East 403 464 17,500 -1,705 Descending FlightAware
02:49PM 41.1470 -89.7110 82° East 398 458 16,400 -1,588 Descending FlightAware
02:50PM 41.1620 -89.5680 82° East 386 444 14,800 -1,333 Descending FlightAware
02:51PM 41.1690 -89.4770 84° East 370 426 14,200 -878 Descending FlightAware
02:51PM 41.1740 -89.3800 86° East 369 425 13,600 -769 Descending FlightAware
02:52PM 41.1790 -89.3050 85° East 368 423 13,200 -882 Descending FlightAware
02:53PM 41.2010 -89.1550 79° East 368 423 12,100 -966 Descending FlightAware
02:53PM 41.2170 -89.1200 59° Northeast 369 425 11,800 -1,011 Descending FlightAware
02:55PM 41.2750 -88.9800 61° Northeast 366 421 10,600 -980 Descending FlightAware
02:55PM 41.2990 -88.9230 61° Northeast 353 406 10,200 -1,015 Descending FlightAware
02:56PM 41.3250 -88.8600 61° Northeast 331 381 9,500 -1,818 Descending FlightAware
02:56PM 41.3400 -88.8020 71° East 324 373 8,200 -2,459 Descending FlightAware
02:57PM 41.3280 -88.7460 106° East 310 357 7,000 -1,833 Descending FlightAware
02:57PM 41.3340 -88.6670 84° East 323 372 6,000 -800 Descending FlightAware
02:58PM 41.3660 -88.6150 51° Northeast 320 368 6,000  Level FlightAware
02:58PM 41.3940 -88.5680 52° Northeast 319 367 6,000 -103 Level FlightAware
02:59PM 41.4190 -88.5250 52° Northeast 320 368 5,900  Descending FlightAware
02:59PM 41.4460 -88.4820 50° Northeast 321 369 6,000 -290 Climbing FlightAware
03:00PM 41.4770 -88.4290 52° Northeast 318 366 5,600 -909 Descending FlightAware
03:00PM 41.4910 -88.3710 72° East 316 364 5,000 -474 Descending FlightAware
03:01PM 41.5050 -88.2870 77° East 316 364 5,000  Level FlightAware
03:02PM 41.5130 -88.2370 78° East 315 362 5,000  Level FlightAware
03:02PM 41.5210 -88.1920 77° East 314 361 5,000  Level FlightAware
03:03PM 41.5310 -88.1230 79° East 316 364 5,000  Level FlightAware
03:03PM 41.5420 -88.0570 77° East 316 364 5,000  Level FlightAware
03:04PM 41.5510 -88.0000 78° East 315 362 5,000  Level FlightAware
03:04PM 41.5600 -87.9390 79° East 317 365 5,000 -94 Level FlightAware
03:05PM 41.5700 -87.8790 77° East 299 344 4,900  Descending FlightAware
03:05PM 41.5780 -87.8280 78° East 276 318 5,000 -353 Climbing FlightAware
03:06PM 41.5850 -87.7660 81° East 269 310 4,500 -769 Descending FlightAware
03:07PM 41.5930 -87.6990 81° East 271 312 4,000 -375 Descending FlightAware
03:07PM 41.6060 -87.6360 75° East 270 311 4,000 -88 Level FlightAware
03:08PM 41.6290 -87.6020 48° Northeast 252 290 3,900 -107 Descending FlightAware
03:08PM 41.6530 -87.5810 33° Northeast 206 237 3,900 -581 Level FlightAware
03:09PM 41.6750 -87.5990 329° Northwest 157 181 3,300 -730 Descending FlightAware
03:09PM 41.6950 -87.6260 315° West 165 190 3,000 -429 Descending FlightAware
03:10PM 41.7110 -87.6480 314° West 175 201 2,800 -484 Descending FlightAware
03:10PM 41.7300 -87.6750 313° West 180 207 2,500 -563 Descending FlightAware
03:11PM 41.7520 -87.6970 323° Northwest 192 221 2,200 -500 Descending FlightAware
03:11PM 41.7550 -87.6970 360° North 196 226 2,200 -226 Level FlightAware
03:12PM 41.7910 -87.6790 20° North 198 228 2,000 -488 Descending FlightAware
03:12PM 41.8120 -87.7080 314° West 135 155 1,500 -818 Descending FlightAware
03:13PM 41.8050 -87.7260 242° Southwest 117 135 1,100 -623 Descending FlightAware
03:14PM 41.7870 -87.7490 224° Southwest 119 137 700 -500 Descending FlightAware